Home > Weather > Kaliningrad > Past weeks

Flag for Russia Past Weather in Kaliningrad, Russia — Yesterday and Last 2 Weeks

Now
70 °F

Scattered clouds.


Feels Like: 70 °F
Forecast: 59 / 74 °F
Wind: 6 mph from Northeast

Location: Kaliningrad/Khrabrovo Airport

Current Time: Jul 23, 2016 at 1:13:31 PM

Latest Report: Jul 23, 2016 at 12:30 PM


Visibility: N/A

Pressure: 30.09 "Hg

Humidity: 69%

Dew Point: 59 °F

Location of KaliningradLocation

Past Weather in Kaliningrad — Graph

°F

Kaliningrad Temperature Yesterday

Maximum temperature yesterday: 68 °F (at 3:00 PM)
Minimum temperature yesterday: 63 °F (at 9:30 AM)
Average temperature yesterday: 65 °F

High & Low Weather Summary for the Past Weeks

 TemperatureHumidityPressure
High81 °F (Jul 11, 4:30 PM)100% (Jul 9, 5:00 AM)30.18 "Hg (Jul 9, 5:00 AM)
Low52 °F (Jul 17, 12:00 AM)44% (Jul 12, 4:30 PM)29.50 "Hg (Jul 15, 2:00 AM)
Average64 °F83%29.92 "Hg
* Reported Jul 8 11:00 AM — Jul 23 11:30 AM, Kaliningrad, Weather by CustomWeather, © 2016

Note: Actual official high and low records may vary slightly from our data, if they occured in-between our weather recording intervals... More about our weather records

Advertising

Kaliningrad Weather History for the Previous 24 Hours

Scroll right to see more
 ConditionsComfort  
Time TempWeatherWind HumidityBarometerVisibility
11:30 AM
Sat, Jul 23
70 °FScattered clouds.3 mph83%30.09 "HgN/A
11:00 AM68 °FScattered clouds.3 mph88%30.09 "HgN/A
10:30 AM68 °FScattered clouds.3 mph88%30.09 "HgN/A
10:00 AM68 °FOvercast.3 mph88%30.09 "HgN/A
9:30 AM68 °FOvercast.3 mph88%30.09 "Hg6 mi
9:00 AM68 °FMore clouds than sun.3 mph88%30.09 "Hg5 mi
8:30 AM68 °FMore clouds than sun.3 mph88%30.09 "Hg6 mi
8:00 AM68 °FPartly sunny.6 mph88%30.07 "Hg5 mi
7:00 AM66 °FOvercast.1 mph100%30.07 "Hg4 mi
6:00 AM66 °FOvercast.3 mph100%30.07 "Hg4 mi
5:30 AM64 °FOvercast.3 mph100%30.07 "Hg4 mi
5:00 AM64 °FOvercast.1 mph100%30.07 "Hg4 mi
4:30 AM64 °FMostly cloudy.3 mph100%30.07 "Hg4 mi
4:00 AM64 °FMostly cloudy.1 mph100%30.07 "Hg4 mi
3:00 AM64 °FPassing clouds.3 mph100%30.07 "Hg4 mi
2:00 AM64 °FLow clouds.3 mph100%30.07 "Hg5 mi
1:00 AM64 °FLow clouds.3 mph100%30.07 "Hg5 mi
12:00 AM64 °FLow clouds.3 mph100%30.04 "Hg4 mi
11:00 PM
Fri, Jul 22
64 °FLow clouds.3 mph100%30.04 "Hg5 mi
10:30 PM64 °FLow clouds.3 mph94%30.04 "Hg5 mi
10:00 PM64 °FLow clouds.3 mph100%30.04 "Hg5 mi
9:30 PM64 °FLow clouds.3 mph100%30.04 "Hg5 mi
9:00 PM64 °FLow clouds.3 mph100%30.04 "Hg5 mi
8:30 PM64 °FPartly sunny.3 mph100%30.04 "Hg5 mi
8:00 PM66 °FMostly cloudy.6 mph94%30.04 "Hg6 mi
7:30 PM66 °FMostly cloudy.6 mph94%30.04 "HgN/A
7:00 PM66 °FOvercast.6 mph94%30.04 "HgN/A
6:00 PM66 °FMostly cloudy.6 mph94%30.04 "HgN/A
5:30 PM66 °FMostly cloudy.6 mph94%30.04 "HgN/A
5:00 PM66 °FMostly cloudy.8 mph94%30.01 "HgN/A
4:30 PM66 °FMostly cloudy.8 mph88%30.01 "HgN/A
4:00 PM66 °FMostly cloudy.6 mph88%30.01 "HgN/A
3:30 PM66 °FMore clouds than sun.8 mph88%30.01 "HgN/A
3:00 PM68 °FOvercast.8 mph78%30.01 "HgN/A
2:30 PM66 °FOvercast.8 mph83%30.01 "HgN/A
2:00 PM66 °FOvercast.8 mph83%30.01 "HgN/A
1:30 PM66 °FOvercast.8 mph83%30.01 "HgN/A
1:00 PM66 °FOvercast.6 mph78%30.01 "HgN/A
Weather by CustomWeather, © 2016

See weather overviewHow to use our weather pages